Flag for Switzerland Weather past 2 weeks in Horgen, Zurich, Switzerland

Now
53 °F

Cool.


Feels Like: 53 °F
Forecast: 43 / 66 °F
Wind: 1 mph from Northeast

Location: Zurich Town / Ville.

Current Time: Aug 22, 2014 at 9:01:17 AM

Latest Report: Aug 22, 2014 at 8:00 AM


Visibility: N/A

Pressure: 30.04 "Hg

Humidity: 84%

Dew point: 49 °F

Location of HorgenLocation

Historic Weather in Horgen — Graph

°F

Horgen temperature yesterday

Maximum temperature yesterday: 67 °F (at 4:00 PM)
Minimum temperature yesterday: 52 °F (at 6:00 AM)
Average temperature yesterday: 58 °F

Past Weeks' High & Low Weather Summary

 TemperatureHumidityPressure
High80 °F (Aug 8, 4:00 PM)98% (Aug 10, 9:00 AM)30.22 "Hg (Aug 10, 9:00 AM)
Low49 °F (Aug 17, 7:00 AM)42% (Aug 21, 4:00 PM)29.68 "Hg (Aug 13, 10:00 AM)
Average61 °F76%29.97 "Hg
* Reported Aug 7 7:00 AM — Aug 22 7:00 AM, Horgen, Weather by CustomWeather, © 2014

Note: Actual official high and low records may vary slightly from our data, if they occured in-between our weather recording intervals... More about our weather records

Advertising

Horgen weather history for previous 24 hours

 ConditionsComfort  
Time TempWeatherWind HumidityBarometerVisibility
7:00 AM
Aug 22
51 °FCool.1 mph83%30.04 "HgN/A
6:00 AM51 °FCool.No wind83%30.04 "HgN/A
5:00 AM51 °FCool.1 mph82%30.04 "HgN/A
4:00 AM52 °FCool.1 mph80%30.04 "HgN/A
3:00 AM53 °FCool.1 mph81%30.04 "HgN/A
2:00 AM54 °FCool.2 mph78%30.04 "HgN/A
1:00 AM55 °FCool.1 mph73%30.04 "HgN/A
12:00 AM56 °FCool.1 mph69%30.04 "HgN/A
11:00 PM
Aug 21
57 °FCool.2 mph63%30.03 "HgN/A
10:00 PM60 °FRefreshingly cool.2 mph58%30.02 "HgN/A
9:00 PM61 °FRefreshingly cool.2 mph56%30.00 "HgN/A
8:00 PM63 °FOvercast.2 mph51%29.99 "HgN/A
7:00 PM63 °FMild.3 mph50%29.98 "HgN/A
6:00 PM64 °FMild.2 mph45%29.98 "HgN/A
5:00 PM64 °FMild.2 mph44%29.98 "HgN/A
4:00 PM67 °FMild.3 mph42%29.98 "HgN/A
3:00 PM66 °FMild.5 mph44%30.00 "HgN/A
2:00 PM63 °FMild.3 mph49%30.02 "HgN/A
1:00 PM63 °FMild.3 mph60%30.03 "HgN/A
12:00 PM63 °FMild.3 mph64%30.04 "HgN/A
11:00 AM56 °FCool.1 mph76%30.08 "HgN/A
10:00 AM56 °FCool.1 mph80%30.08 "HgN/A
9:00 AM54 °FCool.2 mph92%30.09 "HgN/A
Weather by CustomWeather, © 2014

See weather overviewHow to use our weather pages